Hourly Data Report for October 03, 2017

All times are specified in Local Standard Time (LST). Add 1 hour to adjust for Daylight Saving Time where and when it is observed.

FORT SMITH A
NORTHWEST TERRITORIES

60°01'13.000" N
111°57'43.000" W
205.10 m
2202201
71934
YSM

Download Data

Hourly Data (October 2017)
Hourly Data Report for October 3, 2017
Temp Definition
°C
Dew Point Temp Definition
°C
Rel Hum Definition
%
Wind Dir Definition
10's deg

Wind Spd Definition
km/h
Visibility Definition
km
Stn Press Definition
kPa
Hmdx Definition


Wind Chill Definition


Weather Definition


TIME
00:00 Legend Double Dagger -0.2 -2.3 86 15 8 24.1 99.79   -3 LegendNANA
01:00 Legend Double Dagger -1.2 -2.9 88 16 4 24.1 99.74   -3 LegendNANA
02:00 Legend Double Dagger -1.0 -3.1 86 14 5 24.1 99.66   -3 Mainly Clear
03:00 Legend Double Dagger -1.5 -3.5 86 14 7 24.1 99.55   -4 LegendNANA
04:00 Legend Double Dagger -1.0 -3.1 86 15 14 24.1 99.39   -5 LegendNANA
05:00 Legend Double Dagger -0.8 -3.2 84 16 15 24.1 99.29   -5 Mainly Clear
06:00 Legend Double Dagger -0.5 -3.1 82 17 19 24.1 99.14   -6 LegendNANA
07:00 Legend Double Dagger 0.5 -2.9 79 18 16 24.1 98.97     LegendNANA
08:00 Legend Double Dagger 1.8 -2.8 71 18 22 24.1 98.83     Mostly Cloudy
09:00 Legend Double Dagger 3.1 -3.2 63 18 18 24.1 98.71     LegendNANA
10:00 Legend Double Dagger 4.3 -3.4 57 19 14 24.1 98.65     LegendNANA
11:00 Legend Double Dagger 3.8 -0.9 72 20 8 24.1 98.65     Rain
12:00 Legend Double Dagger 5.0 -1.1 65 20 12 24.1 98.54     LegendNANA
13:00 Legend Double Dagger 7.7 -0.4 57 22 15 24.1 98.52     LegendNANA
14:00 Legend Double Dagger 10.0 -0.2 49 24 12 24.1 98.56     Mostly Cloudy
15:00 Legend Double Dagger 12.1 1.6 49 30 27 24.1 98.58     LegendNANA
16:00 Legend Double Dagger 11.4 2.7 55 31 22 24.1 98.66     LegendNANA
17:00 Legend Double Dagger 9.3 2.5 62 32 18 24.1 98.80     Mostly Cloudy
18:00 Legend Double Dagger 8.4 2.1 64 32 16 24.1 98.89     LegendNANA
19:00 Legend Double Dagger 7.5 2.0 68 32 15 24.1 98.98     LegendNANA
20:00 Legend Double Dagger 5.5 3.4 86 34 22 19.3 99.11     Rain
21:00 Legend Double Dagger 5.4 2.1 79 35 19 24.1 99.20     LegendNANA
22:00 Legend Double Dagger 5.0 0.2 71 34 22 24.1 99.30     LegendNANA
23:00 Legend Double Dagger 4.9 0.2 72 33 18 24.1 99.37     Cloudy

Notes on Data Quality.

Legend

  • E = Estimated
  • M = Missing
  • NA = Not Available
  • ‡ = Partner data that is not subject to review by the National Climate Archives
Date modified: